sat.trackr.live / text

‹ back to catalog

ONEWEB-0714

NORAD 54681 · 2022-166AR

PAYLOAD ACTIVE UNKNOWN

§ Identity

Operator
Country
UK
Launch date
2022-12-08
Launch site
AFETR
Launch vehicle
Mass (kg)
RCS (m²)

Purposes: comms

External: N2YO · Heavens-Above · Gunter

§ Orbital elements

Epoch: 2026-09-20T04:08:04.528032Z

Period
108.94 min
Inclination
87.9285°
Eccentricity
0.0002216
Mean motion
13.21826682 rev/d
Perigee alt
1,176.1 km
Apogee alt
1,179.4 km
Semi-major
7,555.9 km
B*
1.2063e-4
RAAN
225.0715°
Arg perigee
73.1999°
Mean anomaly
286.9378°
Rev number
18,408

§ Raw data

ONEWEB-07141 54681U 22166AR  26263.17227463  .00000063  00000+0  12063-3 0  99952 54681  87.9285 225.0715 0002216  73.1999 286.9378 13.21826682184089

JSON: /api/v1/satellites/54681 · /tle

For live sub-satellite position, see the globe view (requires WebGL).

§ Visibility from observer

Set your observer location to see the next 7 days of passes ≥ 10°. The values pass through the URL so the page stays shareable.

No JS? Fill the form by hand. The geolocation button needs JavaScript.